Dubuque, IA

3:46 AM CDT on March 24, 2017 (GMT -0500)
Dubuque Regional

Weather History for KDBQ - May, 2013

Change the Weather History Date:

Tuesday, May 7, 2013

  Actual Average Record
Temperature  
Mean Temperature 64 °F 56 °F  
Max Temperature 77 °F 66 °F 91 °F (1896)
Min Temperature 50 °F 46 °F 26 °F (1885)
Degree Days  
Heating Degree Days 1 10  
Month to date heating degree days 74 73  
Since 1 July heating degree days 7114 6894  
Cooling Degree Days 0 0  
Month to date cooling degree days 0 0  
Year to date cooling degree days 8 5  
Growing Degree Days 14 (Base 50)    
Moisture  
Dew Point 46 °F    
Average Humidity 56    
Maximum Humidity 83    
Minimum Humidity 29    
Precipitation  
Precipitation 0.00 in 0.13 in 1.74 in (1900)
Month to date precipitation 2.22 0.93  
Year to date precipitation 16.75 9.61  
Snow  
Snow 0.00 in 0.00 in - ()
Month to date snowfall 0.0 0.1  
Since 1 July snowfall 54.5 42.0  
Snow Depth 0.00 in    
Sea Level Pressure  
Sea Level Pressure 30.02 in    
Wind  
Wind Speed 1 mph (North)    
Max Wind Speed 12 mph    
Max Gust Speed 16 mph    
Visibility 10 miles    
Events      
T = Trace of Precipitation, MM = Missing Value Source: NWS Daily Summary

Daily Weather History Graph

Daily Weather History Graph

Search for Another Location

Airport or City:

Trip Planner

Search our weather history database for the weather conditions in past years. The results will help you decide how hot, cold, wet, or windy it might be!

Date:

Astronomy

May. 07, 2013 Rise Set
Actual Time 5:49 AM CDT 8:09 PM CDT
Civil Twilight 5:18 AM CDT 8:40 PM CDT
Nautical Twilight 4:39 AM CDT 9:19 PM CDT
Astronomical Twilight 3:56 AM CDT 10:03 PM CDT
Moon 4:26 AM CDT (5/7) 6:07 PM CDT (5/7)
Length of Visible Light 15h 22m
Length of Day
14h 19m
Waning Crescent, 5% of the Moon is Illuminated
May 7
Waning Crescent
May 9
New
May 17
First Quarter
May 24
Full
May 31
Last Quarter

Hourly Weather History & Observations

Time (CDT) Temp. Dew Point Humidity Pressure Visibility Wind Dir Wind Speed Gust Speed Precip Events Conditions
12:53 AM 54.0 °F 46.0 °F 75% 30.03 in 10.0 mi Calm Calm - N/A   Clear
1:53 AM 52.0 °F 46.0 °F 80% 30.03 in 10.0 mi Calm Calm - N/A   Clear
2:53 AM 53.6 °F 46.4 °F 77% 30.03 in 10.0 mi Calm Calm - N/A   Clear
3:53 AM 52.0 °F 46.9 °F 83% 30.02 in 10.0 mi Calm Calm - N/A   Mostly Cloudy
4:53 AM 52.0 °F 46.0 °F 80% 30.02 in 10.0 mi Calm Calm - N/A   Partly Cloudy
5:53 AM 53.1 °F 44.1 °F 71% 30.03 in 10.0 mi Calm Calm - N/A   Clear
6:53 AM 52.0 °F 45.0 °F 77% 30.04 in 10.0 mi Calm Calm - N/A   Clear
7:53 AM 57.0 °F 48.9 °F 74% 30.06 in 10.0 mi Calm Calm - N/A   Clear
8:53 AM 62.1 °F 48.9 °F 62% 30.06 in 10.0 mi NE 3.5 mph - N/A   Clear
9:53 AM 66.9 °F 50.0 °F 54% 30.06 in 10.0 mi Calm Calm - N/A   Clear
10:53 AM 70.0 °F 52.0 °F 53% 30.06 in 10.0 mi North 5.8 mph - N/A   Clear
11:53 AM 72.0 °F 46.0 °F 40% 30.05 in 10.0 mi NE 8.1 mph - N/A   Clear
12:53 PM 73.9 °F 43.0 °F 33% 30.03 in 10.0 mi Calm Calm - N/A   Clear
1:53 PM 73.9 °F 39.9 °F 29% 30.03 in 10.0 mi Calm Calm - N/A   Partly Cloudy
2:53 PM 75.9 °F 44.1 °F 32% 30.01 in 10.0 mi WSW 4.6 mph - N/A   Partly Cloudy
3:53 PM 73.9 °F 43.0 °F 33% 30.00 in 10.0 mi West 5.8 mph - N/A   Scattered Clouds
4:53 PM 75.9 °F 45.0 °F 33% 29.99 in 10.0 mi Calm Calm - N/A   Clear
5:53 PM 75.9 °F 42.1 °F 30% 29.99 in 7.0 mi Calm Calm - N/A   Scattered Clouds
6:53 PM 73.0 °F 45.0 °F 37% 29.99 in 10.0 mi North 3.5 mph - N/A   Partly Cloudy
7:53 PM 73.0 °F 39.9 °F 30% 29.99 in 10.0 mi Calm Calm - N/A   Clear
8:53 PM 63.0 °F 51.1 °F 65% 30.00 in 10.0 mi Calm Calm - N/A   Clear
9:53 PM 61.0 °F 50.0 °F 67% 30.00 in 10.0 mi Calm Calm - N/A   Clear
10:53 PM 61.0 °F 46.9 °F 60% 30.00 in 10.0 mi Calm Calm - N/A   Clear
11:53 PM 55.9 °F 46.9 °F 72% 30.00 in 10.0 mi Calm Calm - N/A   Clear